Regional Weather Roundup
Issued by NWS Burlington, VT

Home | Current Version | Previous Version | Text Only | Print | Product List | Glossary On
Versions: 1 2 3 4 5 6 7 8 9 10 11 12 13 14 15 16 17 18 19 20 21 22 23 24 25 26 27 28 29 30 31 32 33 34 35 36 37 38 39 40 41 42 43 44 45 46 47 48 49 50
000
ASUS41 KBTV 020130
RWRBTV
VERMONT REGIONAL WEATHER ROUNDUP
NATIONAL WEATHER SERVICE BURLINGTON VT
900 PM EDT SAT AUG 01 2015

NOTE: "FAIR" INDICATES FEW OR NO CLOUDS BELOW 12,000 FEET WITH NO
SIGNIFICANT WEATHER AND/OR OBSTRUCTIONS TO VISIBILITY.

* THESE REPORTS ARE NOT UNDER NWS QUALITY CONTROL AND/OR DO NOT
  REPORT WEATHER SUCH AS PRECIPITATION AND FOG.

VTZ001>019-020200-
_____VERMONT_____


CITY           SKY/WX    TMP DP  RH WIND       PRES   REMARKS
BURLINGTON     MOCLDY    73  55  53 NW8       29.79R
MONTPELIER     PTCLDY    63  58  83 CALM      29.83R
MORRISVILLE    CLOUDY    67  57  70 N13G18    29.82R
ST. JOHNSBURY*   N/A     66  58  75 MISG      29.77R
LYNDONVILLE*   MOCLDY    63  55  76 SW3       29.82R
MIDDLEBURY*    CLOUDY    67  57  68 CALM      29.80R
SPRINGFIELD    CLEAR     67  56  67 CALM      29.80R
HIGHGATE*      MOCLDY    67  55  64 CALM      29.79R
NEWPORT*       FAIR      64  56  75 NW7       29.81R
BENNINGTON     CLEAR     70  53  54 W6        29.84R
SUTTON*          N/A     61 N/A N/A MISG        N/A
GALLUP MILLS*    N/A     57 N/A N/A MISG        N/A
MT. MANSFIELD*   N/A     54 N/A N/A NW21        N/A

_____LAKE CHAMPLAIN_____


CITY           SKY/WX    TMP DP  RH WIND       PRES   REMARKS
COLCHESTER RF*   N/A     72  55  56 NW21        N/A
DIAMOND ISL*     N/A     75  54  46 NW8         N/A

$$

NYZ007-026>031-035-052-083-020200-
_____NORTHERN NEW YORK_____


CITY           SKY/WX    TMP DP  RH WIND       PRES   REMARKS
PLATTSBURGH    MOCLDY    69  53  56 W6        29.78R
SARANAC LAKE   PTCLDY    57  54  89 CALM      29.84R
MASSENA        LGT RAIN  61  58  90 SW7       29.82R
OGDENSBURG*    LGT RAIN  61  57  88 S5        29.81S
POTSDAM*       LGT RAIN  59  57  94 S8        29.84R
STARK FALLS*     N/A     63 N/A N/A SW9         N/A
WATERTOWN      PTCLDY    66  58  75 S5        29.82R
FT DRUM        PTCLDY    67  58  70 SW8       29.82S
ALBANY         PTCLDY    73  54  51 NW6       29.83R
GLENS FALLS    CLEAR     71  52  50 S5        29.81R

$$
NHZ002-005-011-020200-
_____NEW HAMPSHIRE_____


CITY           SKY/WX    TMP DP  RH WIND       PRES   REMARKS
LEBANON        MOCLDY    66  60  81 S3        29.78R
KEENE          MOCLDY    68  52  56 S3        29.82R
MT WASHINGTON  FOG       46  46 100 W33         N/A  VSB 0
PLYMOUTH       FAIR      65  65 100 CALM      29.78R
WHITEFIELD     PTCLDY    63  59  87 CALM      29.79R

$$

_____REGIONAL QUEBEC LOCATIONS_____


CITY           SKY/WX    TMP DP  RH WIND       PRES   REMARKS
MONTREAL       MOCLDY    64  59  82 CALM      29.75S
QUEBEC CITY    PTCLDY    61  57  88 W9        29.72R
SHERBROOKE     CLOUDY    59  57  94 CALM      29.79S

_____REGIONAL ONTARIO LOCATIONS_____


CITY           SKY/WX    TMP DP  RH WIND       PRES   REMARKS
OTTAWA         MOCLDY    64  57  77 SW7       29.79R

______KEY______
VSB  - VISIBILITY IN MILES
WCI  - WIND CHILL INDEX
HX   - HEAT INDEX
$$
NNNN


USA.gov is the U.S. government's official web portal to all federal, state and local government web resources and services.